Location: Asheville, NC
(35.6000°N, 82.5500°W)
Time: 06:58:35
(UTC-05:00)

Vanguard 1 Rocket - Pass Details

Date: 17 February 2018
Orbit: 655 x 4222 km, 34.3° (Epoch: 18 February)

Event Time Altitude Azimuth Distance (km) Brightness Sun altitude
Rises 06:45:24 0° 289° (WNW) 8,353 - -6.7°
Exits shadow 06:49:21 - 286° (WNW) 7,596 11.4 -5.9°
Reaches altitude 10° 06:52:05 10° 284° (WNW) 7,058 11.2 -5.3°
Maximum altitude 07:11:22 41° 224° (SW) 3,604 10.2 -1.5°
Drops below altitude 10° 07:22:38 10° 158° (SSE) 4,202 11.4 0.7°
Sets 07:25:30 0° 150° (SSE) 4,817 11.9 1.3°
